www.pogodaiklimat.ru

Погода и климат >> Архив погоды >> Швейцария >> Шаффхаузен


ПОГОДА в Шаффхаузене

  • Прогноз погоды в Шаффхаузене
  • Монитор погоды в Шаффхаузене

АРХИВ ПОГОДЫ в Шаффхаузене

Время (UTC), дата Ветер
(напр.,м/с)
 
Видим.   Явления Облачность Т
(С)
Тd
(С)
f
(%)
Тe
(С)
Тes
(С)
Комфортность P
(гПа)
Po
(гПа)
Тmin
(С)
Tmax
(С)
R
(мм)
R24
(мм)
S
(см)
13 16.09 З 5
{11}
н/о н/о +27.6 +13.4 42 +29 +29 жарко 1016.8 967.8
14 16.09 З 6
{10}
н/о н/о +28.0 +12.7 39 +29 +29 жарко 1016.2 967.3
15 16.09 ЮЗ 5
{11}
н/о н/о +27.6 +11.5 37 +29 +29 жарко 1015.8 966.9
16 16.09 З 5
{10}
н/о н/о +26.5 +10.2 36 +27 +27 жарко 1015.8 966.7
17 16.09 ЮЗ 5
{9}
н/о н/о +22.5 +12.8 54 +25 +25 комфорт 1016.5 966.7
18 16.09 З 4
{11}
н/о н/о +21.9 +13.0 57 +25 +25 комфорт 1016.8 966.8 +28.2
19 16.09 З 4
{5}
н/о н/о +21.9 +12.9 57 +25 +25 комфорт 1017.3 967.3
20 16.09 СЗ 3
{5}
н/о н/о +19.7 +13.4 67 +22 +22 комфорт 1017.7 967.3
21 16.09 С 2
{5}
н/о н/о +19.2 +13.8 71 +21 +21 комфорт 1018.2 967.7
22 16.09 В 2
{3}
н/о н/о +17.8 +14.1 79 +18 +18 1018.5 967.7
23 16.09 СВ 2
{3}
н/о н/о +17.3 +13.7 79 +18 +18 1018.6 967.7
00 17.09 С 2
{5}
н/о н/о +16.8 +12.6 76 +17 +17 1018.3 967.4
01 17.09 СЗ 2
{3}
н/о н/о +15.9 +11.5 75 +16 +16 1018.4 967.3
02 17.09 С 2
{4}
н/о н/о +14.8 +10.3 74 +15 +15 1018.6 967.3
03 17.09 З 2
{4}
н/о н/о +13.6 +10.7 83 +13 +13 1018.7 967.2
04 17.09 З 3
{4}
н/о н/о +14.2 +10.8 80 +13 +13 1018.5 967.1
05 17.09 З 3
{5}
н/о н/о +13.5 +11.1 85 +12 +12 1019.1 967.5
06 17.09 С 2
{5}
н/о н/о +13.7 +10.6 82 +13 +13 1019.5 967.9 +12.8
07 17.09 З 1
{3}
н/о н/о +16.1 +11.3 73 +17 +17 1019.1 968.0
08 17.09 Ю 1
{2}
н/о н/о +18.1 +11.8 67 +19 +19 1018.8 968.1
09 17.09 Ю 2
{3}
н/о н/о +19.5 +11.3 59 +22 +22 комфорт 1018.6 968.1
10 17.09 Ю 2
{4}
н/о н/о +21.2 +10.9 52 +23 +23 комфорт 1018.2 968.0
11 17.09 Ю 2
{5}
н/о н/о +22.6 +11.1 48 +25 +25 комфорт 1017.5 967.6
12 17.09 ЮВ 3
{7}
н/о н/о +24.1 +12.1 47 +26 +26 жарко 1016.7 967.1
13 17.09 ЮВ 2
{6}
н/о н/о +23.0 +11.2 47 +25 +25 комфорт 1016.7 966.9
14 17.09 СВ 3
{6}
н/о н/о +23.3 +12.1 49 +26 +26 жарко 1016.3 966.6
15 17.09 СВ 4
{6}
н/о н/о +22.8 +12.1 51 +25 +25 комфорт 1016.3 966.5
16 17.09 СВ 2
{6}
н/о н/о +22.0 +12.4 54 +24 +24 комфорт 1016.6 966.7
17 17.09 СЗ 5
{8}
н/о н/о +20.4 +11.5 57 +22 +22 комфорт 1017.1 966.9
18 17.09 С 4
{9}
н/о н/о +19.2 +11.9 63 +20 +20 1018.0 967.5 +24.1
19 17.09 СВ 4
{7}
н/о н/о +17.9 +11.2 65 +18 +18 1019.2 968.4
20 17.09 С 3
{6}
н/о н/о +16.1 +10.4 69 +16 +16 1020.4 969.2
21 17.09 С 4
{7}
н/о н/о +14.9 +10.2 73 +14 +14 1021.1 969.7
22 17.09 СВ 5
{7}
н/о н/о +14.1 +9.9 76 +13 +13 1021.5 969.9
23 17.09 СВ 6
{8}
н/о н/о +13.8 +9.4 75 +12 +12 1021.9 970.2
00 18.09 СВ 6
{8}
н/о н/о +13.2 +8.4 73 +11 +11 1022.0 970.2
01 18.09 СВ 5
{9}
н/о н/о +13.0 +6.8 66 +11 +11 1022.1 970.3
02 18.09 СВ 5
{10}
н/о н/о +13.0 +5.5 60 +11 +11 1022.3 970.5
03 18.09 СВ 5
{10}
н/о н/о +11.9 +5.8 66 +10 +10 1022.7 970.6
04 18.09 СВ 5
{9}
н/о н/о +11.9 +5.4 64 +10 +10 1022.9 970.8
05 18.09 СВ 4
{8}
н/о н/о +10.9 +5.6 70 +9 +9 1023.2 970.9
06 18.09 СВ 6
{10}
н/о н/о +11.5 +6.0 69 +9 +9 1023.2 971.0 +10.8
07 18.09 СВ 6
{11}
н/о н/о +12.8 +5.8 62 +11 +11 1023.0 971.1
08 18.09 СВ 6
{12}
н/о н/о +13.6 +5.7 59 +12 +12 1023.2 971.4
09 18.09 В 7
{12}
н/о н/о +15.4 +6.4 55 +14 +14 1022.6 971.2
10 18.09 В 6
{11}
н/о н/о +15.7 +6.3 54 +14 +14 1022.3 971.0
11 18.09 СВ 7
{11}
н/о н/о +17.0 +6.3 49 +16 +16 1021.9 970.8
12 18.09 В 6
{12}
н/о н/о +18.1 +7.0 48 +18 +18 1021.6 970.7
13 18.09 В 4
{10}
н/о н/о +18.1 +6.5 47 +18 +18 1021.4 970.5
14 18.09 СВ 6
{10}
н/о н/о +18.6 +5.0 41 +18 +18 1021.3 970.5
15 18.09 В 4
{11}
н/о н/о +18.1 +3.3 37 +18 +18 1021.2 970.3
16 18.09 В 4
{9}
н/о н/о +17.5 +0.6 32 +17 +17 1021.1 970.1
17 18.09 В 5
{10}
н/о н/о +16.2 +2.0 38 +15 +15 1021.6 970.4
18 18.09 СВ 5
{11}
н/о н/о +14.7 +2.2 43 +14 +14 1022.5 971.0 +18.7
19 18.09 СВ 6
{8}
н/о н/о +13.8 +1.4 43 +12 +12 1023.5 971.8
20 18.09 СВ 6
{9}
н/о н/о +12.5 +2.6 51 +10 +10 1023.9 971.9
21 18.09 СВ 5
{9}
н/о н/о +11.4 +3.2 57 +9 +9 1024.5 972.3
22 18.09 СВ 5
{7}
н/о н/о +10.3 +3.3 62 +8 +8 1024.9 972.4
23 18.09 СВ 4
{7}
н/о н/о +10.1 +2.9 61 +8 +8 1025.2 972.7
00 19.09 СВ 5
{9}
н/о н/о +10.1 +2.4 59 +7 +7 1025.2 972.7
01 19.09 СВ 6
{8}
н/о н/о +9.7 +2.6 61 +7 +7 1025.1 972.5
02 19.09 СВ 7
{11}
н/о н/о +10.1 +2.1 58 +7 +7 1024.8 972.3
03 19.09 СВ 8
{11}
н/о н/о +9.5 +1.9 59 +6 +6 1024.8 972.2
04 19.09 СВ 6
{13}
н/о н/о +9.4 +1.1 56 +6 +6 1025.0 972.4
05 19.09 СВ 4
{9}
н/о н/о +8.1 +1.4 63 +5 +5 1025.6 972.7
06 19.09 СВ 4
{13}
н/о н/о +9.7 +2.0 59 +7 +7 1025.8 973.2 +8.1
07 19.09 СВ 5
{10}
н/о н/о +11.1 +2.1 54 +9 +9 1026.0 973.6
08 19.09 СВ 7
{12}
н/о н/о +12.6 +2.1 49 +10 +10 1026.1 974.0
09 19.09 В 7
{12}
н/о н/о +14.8 +2.7 44 +13 +13 1025.9 974.2
10 19.09 В 5
{12}
н/о н/о +15.5 +2.5 42 +14 +14 1025.8 974.2
11 19.09 В 4
{14}
н/о н/о +16.2 +1.9 38 +16 +16 1025.4 974.0
12 19.09 СВ 7
{14}
н/о н/о +17.4 +2.6 37 +17 +17 1024.9 973.7
13 19.09 СВ 6
{12}
н/о н/о +18.3 +2.9 36 +18 +18 1024.6 973.6
14 19.09 В 7
{13}
н/о н/о +17.5 +0.6 32 +17 +17 1024.5 973.4
15 19.09 СВ 7
{13}
н/о н/о +17.0 +0.5 33 +16 +16 1024.5 973.3
16 19.09 СВ 7
{12}
н/о н/о +16.0 +0.6 35 +15 +15 1024.9 973.5
17 19.09 В 5
{12}
н/о н/о +15.1 +1.1 39 +14 +14 1025.3 973.7
18 19.09 СВ 6
{13}
н/о н/о +13.8 +1.5 43 +12 +12 1026.0 974.1 +18.3
19 19.09 СВ 5
{10}
н/о н/о +12.6 +1.7 47 +11 +11 1026.4 974.3
20 19.09 СВ 5
{9}
н/о н/о +12.0 +1.7 49 +10 +10 1027.0 974.7
21 19.09 СВ 5
{10}
н/о н/о +11.1 +1.2 50 +9 +9 1027.6 975.1
22 19.09 СВ 6
{12}
н/о н/о +10.6 +0.6 50 +8 +8 1027.8 975.2
23 19.09 СВ 5
{11}
н/о н/о +9.9 +0.8 53 +7 +7 1027.7 975.0
00 20.09 СВ 6
{12}
н/о н/о +9.1 +0.9 56 +6 +6 1027.7 974.9
01 20.09 СВ 7
{10}
н/о н/о +8.8 +1.0 58 +5 +5 1027.5 974.6
02 20.09 СВ 7
{13}
н/о н/о +8.6 +1.0 59 +5 +5 1027.1 974.2
03 20.09 СВ 6
{13}
н/о н/о +8.6 +0.9 58 +5 +5 1027.0 974.1
04 20.09 СВ 4
{9}
н/о н/о +7.8 +1.1 63 +5 +5 1027.1 974.1
05 20.09 СВ 5
{7}
н/о н/о +6.9 +1.2 67 +3 +3 1027.5 974.3
06 20.09 СВ 5
{13}
н/о н/о +7.6 +1.4 65 +4 +4 1027.7 974.6 +6.7
07 20.09 СВ 5
{10}
н/о н/о +10.1 +1.3 54 +7 +7 1027.3 974.7
08 20.09 СВ 6
{12}
н/о н/о +11.9 +2.4 52 +9 +9 1027.2 974.9
09 20.09 В 5
{12}
н/о н/о +12.9 +1.7 46 +11 +11 1026.9 974.8
10 20.09 СВ 5
{11}
н/о н/о +15.5 +3.0 43 +14 +14 1026.0 974.4
11 20.09 СВ 5
{10}
н/о н/о +16.2 +2.6 40 +15 +15 1025.4 974.0
12 20.09 СВ 5
{12}
н/о н/о +16.9 +2.1 37 +16 +16 1024.9 973.6
13 20.09 СВ 5
{11}
н/о н/о +18.1 +1.4 33 +18 +18 1024.1 973.1
14 20.09 СВ 5
{10}
н/о н/о +18.4 +2.3 34 +18 +18 1023.6 972.7
15 20.09 СВ 5
{11}
н/о н/о +18.6 +2.3 34 +19 +19 1023.4 972.5
16 20.09 СВ 5
{9}
н/о н/о +17.4 +2.4 37 +17 +17 1023.4 972.3
17 20.09 СВ 5
{9}
н/о н/о +16.3 +3.3 42 +15 +15 1023.4 972.1
18 20.09 СВ 4
{11}
н/о н/о +14.7 +3.6 47 +14 +14 1024.0 972.4 +19.2
19 20.09 СВ 5
{8}
н/о н/о +13.5 +3.3 50 +12 +12 1024.3 972.5
20 20.09 СВ 4
{8}
н/о н/о +12.4 +3.0 53 +11 +11 1024.3 972.3
21 20.09 СВ 4
{8}
н/о н/о +11.8 +2.8 54 +10 +10 1024.0 971.9
22 20.09 СВ 4
{7}
н/о н/о +10.0 +2.9 61 +8 +8 1024.1 971.6
23 20.09 СВ 5
{8}
н/о н/о +10.3 +2.9 60 +8 +8 1023.6 971.2
00 21.09 СВ 4
{8}
н/о н/о +9.1 +3.0 66 +6 +6 1023.5 970.9
01 21.09 СВ 4
{6}
н/о н/о +7.7 +3.1 73 +5 +5 1023.6 970.7
02 21.09 СВ 4
{6}
н/о н/о +7.1 +2.9 75 +4 +4 1023.4 970.4
03 21.09 С 3
{6}
н/о н/о +6.8 +2.7 75 +4 +4 1023.2 970.2
04 21.09 СВ 4
{5}
н/о н/о +6.7 +3.1 78 +3 +3 1023.0 970.0
05 21.09 СВ 4
{6}
н/о н/о +6.6 +2.9 77 +3 +3 1023.3 970.2
06 21.09 СВ 2
{6}
н/о н/о +7.1 +3.3 77 +5 +5 1023.4 970.4 +5.7
07 21.09 В 2
{4}
н/о н/о +9.0 +3.4 68 +8 +8 1023.1 970.5
08 21.09 В 2
{4}
н/о н/о +11.2 +4.1 62 +11 +11 1022.7 970.5
09 21.09 В 3
{5}
н/о н/о +12.8 +4.6 57 +12 +12 1021.7 969.9
10 21.09 В 2
{5}
н/о н/о +14.6 +5.2 53 +15 +15 1020.9 969.4
11 21.09 ЮВ 2
{5}
н/о н/о +16.3 +7.1 54 +17 +17 1019.6 968.5
12 21.09 В 4
{5}
н/о н/о +18.7 +8.6 52 +19 +19 1018.1 967.5
13 21.09 ЮВ 3
{6}
н/о н/о +19.5 +9.1 51 +21 +21 комфорт 1017.3 966.9
14 21.09 В 3
{6}
н/о н/о +20.8 +9.3 48 +23 +23 комфорт 1016.2 966.1
15 21.09 В 4
{7}
н/о н/о +20.5 +10.4 52 +22 +22 комфорт 1015.8 965.6
16 21.09 В 3
{6}
н/о н/о +19.9 +10.4 54 +21 +21 комфорт 1015.3 965.1
17 21.09 В 3
{5}
н/о н/о +17.6 +11.3 67 +18 +18 1015.6 964.9
18 21.09 СВ 4
{7}
н/о н/о +16.4 +10.8 69 +16 +16 1015.6 964.7 +21.2
19 21.09 СВ 3
{5}
н/о н/о +14.6 +10.7 77 +14 +14 1016.1 964.9
20 21.09 СВ 5
{6}
н/о н/о +13.5 +10.5 82 +12 +12 1016.5 965.1
21 21.09 СВ 5
{7}
н/о н/о +12.1 +9.8 86 +10 +10 1016.3 964.6
22 21.09 СВ 5
{7}
н/о н/о +12.2 +9.5 84 +10 +10 1015.3 963.7
23 21.09 СВ 4
{6}
н/о н/о +12.4 +9.4 82 +10 +10 1015.0 963.4
00 22.09 С 3
{7}
н/о н/о +11.1 +9.0 87 +9 +9 1015.1 963.3
01 22.09 С 1
{5}
н/о н/о +11.3 +8.8 85 +11 +11 1014.9 963.1
02 22.09 В 2
{2}
н/о н/о +11.3 +8.9 85 +10 +10 1014.7 962.9
03 22.09 СВ 2
{5}
н/о н/о +11.2 +8.9 86 +10 +10 1014.5 962.7
04 22.09 В 1
{2}
н/о н/о +11.0 +8.8 86 +12 +12 1014.3 962.5
05 22.09 СВ 4
{5}
н/о н/о +10.7 +9.0 89 +8 +8 1013.8 962.0
06 22.09 СВ 3
{5}
н/о н/о +11.4 +9.2 86 +10 +10 1014.1 962.4 +10.5
07 22.09 СВ 3
{4}
н/о н/о +12.3 +9.7 84 +11 +11 1014.0 962.5
08 22.09 СВ 2
{2}
н/о н/о +14.0 +9.7 75 +14 +14 1013.5 962.3
09 22.09 В 2
{4}
н/о н/о +15.4 +9.8 69 +16 +16 1012.9 962.0
10 22.09 Ю 1
{3}
н/о н/о +16.9 +10.8 67 +18 +18 1012.3 961.7
11 22.09 ЮВ 1
{3}
н/о н/о +19.7 +11.7 60 +23 +23 комфорт 1011.2 961.1
12 22.09 ЮВ 2
{4}
н/о н/о +21.1 +12.3 57 +23 +23 комфорт 1010.2 960.4
13 22.09 ЮВ 2
{3}
н/о н/о +22.2 +13.3 57 +25 +25 комфорт 1009.3 959.8
14 22.09 ЮВ 1
{3}
н/о н/о +22.9 +13.1 54 +26 +26 жарко 1008.9 959.5
15 22.09 Ю 1
{3}
н/о н/о +23.2 +11.1 46 +25 +25 комфорт 1008.5 959.2
16 22.09 ЮВ 1
{3}
н/о н/о +22.0 +13.0 57 +25 +25 комфорт 1008.5 959.0
17 22.09 В 2
{3}
н/о н/о +20.1 +13.8 67 +23 +23 комфорт 1008.9 959.0
18 22.09 СВ 3
{3}
н/о н/о +19.6 +13.8 69 +22 +22 комфорт 1009.1 959.1 +23.7
19 22.09 СВ 4
{4}
н/о н/о +18.4 +14.0 76 +19 +19 1009.6 959.4
20 22.09 СВ 3
{4}
н/о н/о +18.0 +13.9 77 +18 +18 1010.0 959.7
21 22.09 СВ 2
{4}
н/о н/о +17.9 +13.8 77 +19 +19 1010.1 959.8
22 22.09 З 3
{4}
н/о н/о +17.9 +14.4 80 +18 +18 1010.5 960.1
23 22.09 З 7
{13}
н/о н/о +16.5 +13.5 82 +15 +15 1012.0 961.3
00 23.09 З 5
{13}
н/о н/о +14.9 +13.0 88 +13 +13 1013.1 962.1 0.5
01 23.09 З 4
{8}
н/о н/о +14.3 +13.0 92 +13 +13 1014.5 963.3 1
02 23.09 ЮЗ 5
{10}
н/о н/о +13.5 +12.3 92 +11 +11 1015.8 964.4 1
03 23.09 З 5
{10}
н/о н/о +13.1 +11.7 91 +11 +11 1016.2 964.7
04 23.09 З 5
{8}
н/о н/о +12.9 +11.6 92 +11 +11 1016.2 964.7 0.5
05 23.09 ЮЗ 4
{6}
н/о н/о +12.8 +12.0 95 +11 +11 1016.7 965.1 1
06 23.09 ЮЗ 4
{10}
н/о н/о +12.7 +11.9 95 +11 +11 1017.4 965.8 +12.7 0.7
07 23.09 ЮЗ 4
{5}
н/о н/о +12.7 +12.0 96 +11 +11 1018.1 966.4 3
08 23.09 ЮЗ 3
{5}
н/о н/о +12.8 +12.3 97 +11 +11 1018.6 966.9 5
09 23.09 ЮЗ 3
{6}
н/о н/о +13.2 +12.5 96 +12 +12 1018.8 967.2 0.4
10 23.09 ЮЗ 2
{5}
н/о н/о +13.9 +12.6 92 +13 +13 1018.5 967.0 0.1
11 23.09 ЮЗ 4
{8}
н/о н/о +15.0 +13.0 88 +14 +14 1018.1 966.8
12 23.09 З 6
{8}
н/о н/о +16.7 +12.1 74 +16 +16 1017.3 966.4

 

Местоположение метеостанции Шаффхаузен (Швейцария): широта 47.68 долгота 8.62 высота над уровнем моря 437 м.

В архиве по умолчанию представлена погода в Шаффхаузене за последнюю неделю. Архивные данные за месяц целиком и за предыдущие месяцы, начиная с января 2011 года, Вы можете получить, выбрав интересующий диапазон дат из раскрывающегося списка и нажав кнопку "Ввод!".


*Определитесь, кто Вы:
робот инопланетянин человек

Внимание! Время в таблицах - всемирное. Для получения местного времени необходимо прибавить поправку, которая равна 1 ч.

Смотрите также архив погоды в соседних городах и на ближайших метеорологических станциях:

Погода в Халлау (Швейцария) (11 км)
Погода в Тразадингене (Швейцария) (14 км)
Погода в Цюрих аэропорту (Швейцария) (23 км)
Погода на Легерне (Швейцария) (28 км)
Погода в Реккенхольце (Швейцария) (29 км)
Погода в Хайденхаусе (Швейцария) (30 км)
Погода в Тениконе (Швейцария) (31 км)
Погода на Бецнау (Швейцария) (32 км)
Погода в Цюрихе (Швейцария) (34 км)
Погода в Институте Пауля Шеррера (Швейцария) (34 км)

Пояснения к столбцам:

Ветер - указаны скорость ветра в м/с - средняя за 10 мин, порывы в срок и между сроками (в фигурных скобках) и направление, откуда дует ветер: С - северный, СВ - северо-восточный, В - восточный, ЮВ - юго-восточный, Ю - южный, ЮЗ - юго-западный, З - западный, СЗ - северо-западный.
Видимость - горизонтальная дальность видимости в метрах или километрах. При видимости от 1 до 10 км при отсутствии осадков обычно наблюдается дымка, при ухудшении видимости до 1 км и менее - туман. В сухую погоду видимость может ухудшаться дымом, пылью или мглою.
Явления - указаны атмосферные явления, наблюдавшиеся в срок или в последний час перед сроком; фигурными скобками обозначены явления, наблюдавшиеся между сроками (за 1-3 часа до срока); квадратными скобками обозначены град или гололедные отложения с указанием их диаметра в мм.
Облачность - указаны через наклонную черту общая и нижняя облачность в баллах и высота нижней границы облаков в метрах; квадратными скобками обозначены формы облаков: Ci - перистые, Cs - перисто-слоистые, Cc - перисто-кучевые, Ac - высококучевые, As - высокослоистые, Sc - слоисто-кучевые, Ns - слоисто-дождевые, Cu - кучевые, Cb - кучево-дождевые. Подробнее классификацию облаков см. в Атласе облаков (PDF).
T - Температура воздуха - температура, измеренная на высоте 2 м над землей.
Td - Температура точки росы - температура, при понижении до которой содержащийся в воздухе водяной пар достигнет насыщения.
f - Относительная влажность воздуха - влажноcть воздуха, измеренная на высоте 2 м над землей.
Te - Эффективная температура - температура, которую ощущает одетый по сезону человек в тени. Характеристика душности погоды. При расчете учитывается влияние влажности воздуха и скорости ветра на теплоощущения человека.
Tes - Эффективная температура на солнце - температура, которую ощущает человек, с поправкой на солнечный нагрев. Характеристика знойности погоды. Зависит от высоты солнца над горизонтом, облачности и скорости ветра. Ночью, в пасмурную погоду, а также при ветре 12 м/с и более поправка равна нулю.
P - Атмосферное давление - приведенное к уровню моря атмосферное давление.
Po - Атмосферное давление - измеренное на уровне метеостанции атмосферное давление.
Tmin - Минимальная температура - минимум температуры воздуха на высоте 2 м над землей.
Tmax - Максимальная температура - максимум температуры воздуха на высоте 2 м над землей.
R - Количество осадков - Количество выпавших осадков за период времени, мм. При наведении курсора мыши на число - период времени, за который выпало указанное количество осадков.
R24 - Количество осадков - Количество выпавших осадков за 24 часа, мм.
S - Снежный покров - Высота снежного покрова, см. При наведении курсора мыши на число - состояние снежного покрова и степень покрытия местности в баллах.